Flag for U.S.A. Weather past 2 weeks in Port Angeles, Washington, U.S.A.

Now
61 °F

Cool.


Feels Like: 61 °F
Forecast: 51 / 67 °F
Wind: No wind

Location: William R. Fairchild International Airport

Current Time: Sep 19, 2014 at 9:03:03 PM

Latest Report: Sep 19, 2014 at 7:53 PM


Visibility: 10 mi

Pressure: 30.12 "Hg

Humidity: 83%

Dew point: 56 °F

Location of Port AngelesLocation

Historic Weather in Port Angeles — Graph

°F

Port Angeles temperature yesterday

Maximum temperature yesterday: 65 °F (at 3:04 PM)
Minimum temperature yesterday: 57 °F (at 2:53 AM)
Average temperature yesterday: 61 °F

Past Weeks' High & Low Weather Summary

 TemperatureHumidityPressure
High79 °F (Sep 6, 5:53 PM)96% (Sep 8, 12:53 AM)30.33 "Hg (Sep 8, 12:53 AM)
Low46 °F (Sep 14, 6:53 AM)19% (Sep 13, 5:53 PM)29.73 "Hg (Sep 17, 5:53 PM)
Average61 °F63%29.96 "Hg
* Reported Sep 4 6:53 PM — Sep 19 6:53 PM, Port Angeles, Weather by CustomWeather, © 2014

Note: Actual official high and low records may vary slightly from our data, if they occured in-between our weather recording intervals... More about our weather records

Advertising

Port Angeles weather history for previous 24 hours

 ConditionsComfort  
Time TempWeatherWind HumidityBarometerVisibility
6:53 PM
Sep 19
62 °FCool.No wind80%30.11 "Hg10 mi
5:53 PM64 °FMild.3 mph78%30.12 "Hg10 mi
4:53 PM66 °FMild.3 mph70%30.11 "Hg10 mi
3:53 PM67 °FMild.5 mph68%30.10 "Hg10 mi
2:53 PM65 °FMild.5 mph78%30.11 "Hg10 mi
1:53 PM66 °FMild.5 mph75%30.11 "Hg10 mi
12:53 PM65 °FMild.6 mph78%30.10 "Hg10 mi
11:53 AM60 °FLow clouds.5 mph90%30.10 "Hg8 mi
9:53 AM62 °FLight rain. Low clouds.No wind90%30.05 "Hg7 mi
8:53 AM62 °FLight rain. Cloudy.No wind86%30.03 "Hg7 mi
7:53 AM61 °FLight rain. Fog.3 mph90%30.03 "Hg4 mi
6:53 AM61 °FCool.No wind83%30.01 "Hg10 mi
6:02 AM61 °FCool.No wind83%30.00 "Hg10 mi
5:53 AM60 °FMostly cloudy.No wind86%30.00 "Hg10 mi
4:53 AM61 °FCool.No wind83%29.99 "Hg10 mi
3:53 AM61 °FCool.No wind83%29.99 "Hg10 mi
2:53 AM61 °FCool.No wind83%29.98 "Hg10 mi
1:53 AM61 °FCool.No wind83%29.98 "Hg10 mi
12:53 AM60 °FCool.3 mph90%29.98 "Hg10 mi
11:53 PM
Sep 18
61 °FCool.No wind90%29.96 "Hg10 mi
10:53 PM60 °FCool.3 mph90%29.95 "Hg10 mi
9:53 PM61 °FCool.No wind87%29.95 "Hg10 mi
Weather by CustomWeather, © 2014

See weather overviewHow to use our weather pages